Theta_e
368 366 361 357 359 358 353 347 319 321 323 314 316 318 316 327 326 322 322 325 323 330 330 333 332 330 327 326 331 330 330 327 330 320 319 338 351 351 353 354 354 354 354 356 359 359 360 361 361 362 364 364 364 363 362 363 364 364 363 364 364 364 364 364 364 364 363 363 362 362 363 364 364 365 365 365 366 366 366 367 367 367 367 367 367 367 367 365 363 363 364 365 365 364 364 364 364
368 364 357 356 351 347 339 344 321 318 319 315 315 320 321 326 326 322 322 324 328 330 335 335 335 335 335 334 334 332 329 332 335 334 340 347 351 351 354 355 355 353 354 357 359 359 360 361 361 361 362 363 362 364 362 362 363 362 363 363 364 364 364 364 364 364 363 363 363 362 362 364 364 365 365 365 365 365 366 367 366 366 366 366 367 366 364 363 363 363 364 364 364 364 364 364 363
364 359 357 359 352 349 342 333 314 315 313 310 315 319 326 322 323 326 328 330 331 333 334 333 333 332 331 331 326 328 322 336 337 340 340 348 343 348 354 357 356 355 355 357 358 360 361 362 360 361 361 362 362 363 363 363 363 362 363 363 364 365 364 363 364 364 363 363 363 362 362 362 363 364 363 363 364 364 366 365 365 366 366 366 366 365 363 362 362 362 363 363 364 364 363 363 362
364 359 356 356 345 349 336 323 318 316 312 313 315 321 323 324 326 329 332 332 332 333 332 329 327 334 329 326 328 335 331 332 339 339 338 342 346 351 354 355 356 355 356 357 358 360 361 361 359 360 358 358 365 363 362 362 363 363 363 364 364 364 363 364 363 363 363 362 362 362 362 362 363 363 364 364 365 365 365 365 365 366 367 366 365 364 363 363 363 363 362 362 362 362 362 361 361
356 356 358 352 346 335 331 319 317 318 311 315 313 322 325 328 328 329 330 332 332 332 331 331 330 335 336 332 334 328 330 338 339 343 342 347 353 354 354 355 356 355 355 357 358 359 361 360 360 360 357 357 359 363 363 361 361 362 363 363 364 363 364 363 363 363 363 362 362 361 362 362 363 364 364 365 364 363 363 364 364 364 366 366 365 364 364 363 363 363 362 361 361 363 362 362 361
354 354 357 353 340 344 326 316 314 314 318 320 317 322 328 330 328 329 329 331 333 333 333 331 328 328 330 332 336 332 338 331 340 343 345 346 352 355 355 356 355 355 356 357 358 360 361 361 360 360 356 357 359 361 362 362 364 364 364 363 363 363 363 363 362 362 362 362 361 361 361 362 363 364 364 364 363 362 363 363 364 364 364 364 365 364 363 363 362 363 362 362 359 360 360 361 361
351 349 347 348 343 335 320 314 313 315 318 321 321 325 329 330 330 329 328 328 331 332 334 330 334 333 328 335 338 342 345 344 342 344 348 350 353 355 355 355 355 356 356 357 358 360 361 358 362 361 359 358 359 363 362 362 365 365 364 364 363 363 363 363 362 362 362 362 362 362 363 363 363 363 363 363 363 362 363 363 363 363 363 363 363 363 363 363 363 362 361 359 359 359 359 361 360
354 344 341 333 325 323 314 314 315 318 318 323 326 329 330 329 330 329 327 327 324 326 331 333 334 331 330 340 329 343 348 350 349 351 351 353 353 354 355 356 354 355 356 357 359 361 362 361 359 361 362 363 363 361 359 362 364 364 363 364 364 363 363 363 362 362 362 362 363 363 363 362 362 363 363 363 362 362 363 363 363 362 362 362 363 363 363 363 362 362 361 360 359 358 358 358 358
348 343 339 330 314 315 314 314 316 320 321 324 327 331 332 331 331 328 326 327 328 330 330 332 333 327 330 333 333 342 345 350 351 352 352 353 353 354 354 355 354 354 356 357 358 361 361 362 362 363 363 364 363 361 359 362 361 364 364 365 364 363 363 363 362 362 363 363 363 363 363 363 363 363 362 362 363 364 363 362 362 362 362 363 363 363 364 364 364 363 363 361 360 358 357 357 357
344 342 327 324 318 313 314 315 316 319 321 325 326 328 329 330 328 329 327 326 328 331 333 337 335 329 333 329 334 339 343 350 352 351 352 353 354 355 354 354 355 354 356 357 359 360 361 363 363 364 364 364 363 362 358 359 363 363 364 365 364 364 363 363 363 363 363 363 363 363 363 363 363 363 363 363 363 363 362 362 362 362 363 363 363 363 363 363 363 362 362 359 358 356 355 355 358
337 340 335 317 314 312 312 313 317 320 322 326 327 330 330 330 329 327 328 329 332 330 334 336 331 331 333 332 336 347 350 350 349 347 352 354 355 354 354 356 356 357 356 358 359 361 362 363 364 364 364 364 363 363 363 362 364 364 365 365 364 363 363 362 363 363 364 364 363 363 363 362 363 363 363 362 362 362 363 362 363 363 363 362 361 361 362 362 362 361 360 360 356 353 353 354 357
332 332 331 314 313 313 314 316 318 321 323 325 324 328 331 329 330 327 329 326 331 331 331 333 329 336 330 330 333 343 347 348 349 351 353 355 354 355 356 357 358 358 359 359 361 360 362 363 366 365 365 365 364 364 364 363 364 366 365 364 364 363 363 363 363 363 364 363 364 364 364 363 363 363 362 362 362 362 362 363 361 360 361 362 362 363 363 361 361 362 361 358 354 353 353 354 355
331 327 322 315 313 314 315 317 318 320 321 322 323 328 332 329 327 329 328 330 331 329 328 335 337 336 327 329 339 343 342 347 351 353 355 355 355 356 358 358 358 358 359 362 361 361 363 363 363 365 365 364 365 365 365 364 364 364 364 364 363 363 364 365 364 365 364 364 364 364 364 364 363 362 363 362 362 362 361 361 361 362 362 363 363 363 364 363 362 362 361 355 352 354 353 353 353
333 327 321 315 316 315 316 317 320 318 319 324 327 331 331 328 330 331 332 328 328 327 334 338 337 337 332 334 335 336 341 349 352 355 356 357 357 356 356 357 357 359 360 361 361 362 363 362 361 362 365 365 365 364 364 362 365 365 365 364 364 364 366 365 365 365 364 364 364 364 364 363 363 363 363 362 362 362 361 362 362 363 364 364 363 363 363 363 364 364 361 355 353 353 353 351 352
332 326 321 317 314 316 317 315 317 318 318 325 327 330 330 332 333 333 330 326 328 338 339 343 340 332 325 330 329 335 342 349 353 355 355 357 357 357 356 357 357 358 359 360 361 362 362 362 359 363 365 364 365 363 363 361 363 364 364 365 365 366 366 365 365 364 365 364 364 363 364 363 363 363 363 362 363 362 362 362 362 363 362 360 360 363 365 362 364 362 359 354 352 354 354 353 353
338 329 321 315 312 314 315 317 320 318 318 326 330 332 330 332 335 331 332 335 334 339 338 331 341 332 333 333 335 340 345 350 354 355 355 355 356 356 356 356 356 357 359 360 361 364 363 363 364 363 364 365 365 364 366 365 363 364 364 365 364 365 365 366 364 363 364 364 364 364 363 364 363 364 363 363 363 363 363 364 364 364 361 360 363 365 364 364 365 364 359 352 351 352 353 354 354
338 332 318 315 311 313 316 317 319 315 322 326 331 330 327 328 334 336 340 340 333 333 335 336 334 337 336 337 342 345 347 351 354 353 353 352 353 350 352 352 355 356 357 359 361 363 362 362 363 363 364 365 365 365 363 365 364 364 364 365 364 364 365 365 365 364 364 364 364 363 363 365 367 367 366 365 363 365 364 363 363 363 362 363 364 365 364 366 366 364 363 358 353 352 354 355 359
333 323 318 314 315 313 319 319 321 325 322 326 328 330 329 326 331 334 339 335 334 333 334 337 339 339 341 343 346 347 348 350 351 350 348 347 349 347 348 351 353 351 354 356 360 362 361 363 364 364 364 365 366 366 365 365 366 365 366 367 366 366 365 365 367 366 363 366 363 365 366 366 366 367 367 364 366 365 362 363 363 361 362 364 365 365 365 364 362 364 363 361 360 360 361 362 361
325 319 317 315 316 318 321 323 325 324 324 328 329 330 329 328 332 335 330 330 331 329 333 336 336 339 342 344 345 346 348 349 348 347 346 346 346 345 346 348 350 351 351 354 356 360 360 361 363 363 365 366 367 367 366 367 367 369 366 366 366 364 365 366 365 367 367 367 366 366 366 366 366 367 368 364 364 363 363 362 362 362 364 365 363 362 360 357 356 358 359 357 357 360 361 360 358
326 322 318 318 320 321 322 323 324 327 329 328 328 329 329 331 332 336 329 329 330 327 329 333 333 335 339 342 344 345 348 348 348 347 345 346 346 346 346 346 348 350 351 353 355 359 360 360 361 362 364 366 367 367 367 368 368 368 367 366 366 366 366 365 366 367 367 367 365 366 365 367 367 368 363 362 363 363 364 362 362 361 361 360 358 359 356 352 350 352 353 354 355 356 357 356 357
327 322 319 321 322 319 321 323 325 327 331 329 328 329 328 331 333 331 330 327 327 329 334 332 333 336 339 341 343 345 346 346 346 346 345 346 347 347 347 347 347 349 352 355 355 357 360 360 361 361 364 364 365 368 367 366 368 365 366 367 367 366 365 364 364 365 366 366 366 365 365 366 365 365 365 365 362 364 361 362 363 364 364 363 355 359 355 354 352 352 353 355 356 356 354 355 357
323 323 326 325 321 320 323 323 325 328 331 330 329 326 326 334 332 330 330 325 323 330 335 337 338 340 340 340 342 345 345 345 345 344 345 345 345 346 347 348 350 351 353 352 353 356 358 360 361 361 362 363 364 362 365 365 366 364 365 367 366 365 365 364 364 365 364 366 366 364 365 365 366 365 366 365 365 366 362 360 363 364 362 361 359 357 354 353 351 351 353 353 354 354 353 354 354
319 323 324 326 323 322 323 323 325 329 328 328 327 329 333 330 328 331 330 327 329 335 338 339 341 343 343 343 344 343 343 343 345 344 346 346 346 346 346 347 348 348 351 351 355 356 358 360 361 362 360 362 364 365 367 367 367 366 365 366 364 363 364 363 362 363 365 367 366 366 363 362 362 362 363 365 364 364 361 362 362 364 361 359 358 355 354 353 351 350 351 354 354 353 352 353 353
322 319 322 324 323 322 323 323 326 329 329 328 331 334 329 329 325 331 328 329 331 334 339 341 344 345 344 342 343 342 343 344 344 346 347 346 346 345 347 347 350 351 352 352 354 356 359 358 360 360 360 361 362 364 364 363 367 367 365 366 365 364 363 361 361 362 366 366 367 367 366 363 361 361 362 363 362 363 360 362 362 360 360 357 357 355 352 351 351 352 354 356 354 355 351 352 351
319 318 320 320 322 323 324 324 326 328 329 331 331 328 329 330 329 330 327 330 333 336 340 343 345 344 343 343 343 344 344 345 345 347 349 348 348 349 349 351 351 352 351 352 354 355 358 360 360 359 360 360 361 363 363 365 367 367 367 366 364 365 364 363 363 364 363 365 366 368 367 362 361 361 361 362 363 361 361 361 359 359 359 357 356 353 353 353 353 353 354 354 355 353 351 352 351
318 320 321 319 321 322 324 324 326 328 329 331 328 328 331 331 332 327 329 331 336 340 340 342 344 342 341 342 344 344 344 344 346 347 347 347 347 347 349 350 351 351 352 354 355 357 358 361 360 359 359 360 361 360 362 363 366 367 368 367 367 370 365 365 365 362 362 362 364 367 365 364 361 360 360 362 360 359 360 360 359 358 357 357 354 354 354 354 354 354 354 354 353 353 352 351 350
317 319 320 318 320 322 324 323 325 328 328 330 327 327 328 330 328 322 331 334 338 339 340 342 342 341 341 342 343 346 344 345 346 348 348 348 347 348 349 350 350 351 354 353 354 356 359 361 359 360 361 362 362 360 361 362 364 363 364 365 368 369 368 369 365 365 364 362 363 369 369 368 364 362 359 360 359 360 360 360 359 360 357 357 356 354 356 355 355 354 355 353 353 352 351 350 349
315 318 319 319 321 323 323 324 325 327 325 330 329 326 328 329 328 324 330 337 339 338 339 340 341 341 342 343 344 346 347 348 348 348 345 346 346 347 349 349 351 352 353 354 355 359 358 359 359 361 361 362 362 360 362 362 361 362 363 364 365 368 369 369 366 364 363 363 366 368 368 366 365 363 363 362 360 359 359 359 360 360 359 357 357 355 355 356 355 356 355 355 353 352 350 350 350
316 318 315 319 321 320 322 321 324 326 323 330 330 325 322 325 323 328 333 338 338 338 339 340 340 341 343 344 344 345 345 347 348 347 347 348 349 349 349 352 352 352 354 355 357 359 356 359 359 361 361 363 362 360 360 362 362 363 363 364 365 366 366 366 364 363 363 364 364 366 367 366 366 364 364 363 361 360 360 360 359 360 360 359 358 357 357 357 356 353 353 353 351 351 349 349 350
321 320 320 318 318 317 321 324 325 324 325 330 328 312 318 323 327 331 336 336 337 337 338 339 340 341 342 343 344 344 346 347 347 347 349 350 351 350 351 353 355 354 355 357 359 358 358 359 361 361 362 361 362 361 362 361 363 363 364 365 366 366 366 366 365 366 365 363 364 365 366 365 364 364 365 364 362 361 362 361 360 360 359 359 359 360 357 356 354 352 351 351 348 349 347 348 346
316 321 321 316 313 314 322 322 324 322 328 328 327 313 317 322 327 333 336 337 336 334 337 338 339 340 341 343 343 343 345 347 347 349 351 352 352 352 352 354 356 357 356 357 357 360 361 361 363 361 363 362 363 361 362 362 363 362 363 365 365 366 366 365 365 366 364 363 364 364 364 365 365 364 363 363 362 362 361 360 359 358 359 359 358 359 358 357 353 352 351 349 350 349 347 349 348
321 314 312 317 313 316 321 326 323 321 325 328 324 314 316 322 327 333 336 336 335 334 336 337 338 339 340 342 342 342 344 346 348 350 351 351 352 352 353 355 357 356 357 359 359 361 360 363 365 362 363 362 363 363 364 364 364 365 364 364 365 366 367 366 367 366 365 364 364 365 365 364 363 363 362 361 359 359 359 359 357 358 357 358 358 358 357 354 353 352 352 350 349 349 350 348 349
318 314 313 313 315 316 318 323 325 327 325 327 322 315 320 320 329 333 337 336 335 334 335 336 337 337 338 340 341 342 344 345 347 348 351 352 353 353 354 356 357 358 359 360 360 361 361 362 365 362 361 362 363 363 364 365 365 364 364 364 363 365 363 364 365 365 362 362 365 364 364 363 363 363 363 362 360 359 358 357 358 357 358 356 355 354 354 353 352 350 352 352 352 348 347 347 347
313 314 314 316 313 316 315 322 325 328 325 320 323 319 320 327 330 332 335 336 334 333 335 336 336 337 338 339 340 341 342 344 344 348 349 351 352 354 355 357 358 359 361 360 361 362 362 362 363 364 364 363 364 364 365 364 364 363 363 363 365 364 364 364 364 358 356 359 362 362 365 364 364 364 363 363 361 360 359 358 357 357 357 356 354 354 353 353 352 351 350 351 349 348 346 346 345
311 311 312 313 316 317 317 316 322 326 325 321 321 320 320 326 330 331 334 336 334 333 334 336 336 337 338 339 340 341 342 342 344 348 349 351 352 353 354 356 357 359 360 361 362 363 363 364 364 366 365 365 365 365 365 364 364 364 364 364 364 365 365 364 363 359 359 359 360 362 362 362 362 362 362 362 358 357 356 356 355 356 357 355 355 352 352 351 350 350 348 348 348 347 345 345 344
313 314 313 314 312 315 316 320 325 325 322 320 321 318 319 326 329 331 333 336 334 334 336 336 336 337 338 339 339 340 341 342 346 349 350 351 352 352 353 355 356 358 360 362 363 363 364 364 365 365 365 364 365 365 363 361 363 361 359 361 360 360 362 359 360 359 360 359 360 362 361 360 360 359 360 359 356 357 356 357 356 355 355 355 352 351 349 349 349 348 347 347 348 348 347 345 346
317 315 315 315 314 316 319 319 324 328 324 321 322 322 322 324 328 330 332 335 334 334 334 335 336 336 337 338 339 340 341 342 347 348 349 350 350 352 353 355 356 358 361 362 362 362 363 363 364 363 364 366 364 361 360 360 359 358 359 357 356 360 361 362 359 358 359 360 361 359 359 358 358 358 359 359 357 356 355 357 357 356 355 354 352 350 350 350 348 347 347 348 347 344 344 346 346
316 314 314 314 315 314 318 318 324 328 322 321 323 321 322 324 328 331 332 332 331 332 333 334 335 336 337 339 339 340 342 344 346 346 348 349 349 350 352 353 355 355 358 360 360 361 363 364 364 364 365 365 364 364 362 361 361 359 357 357 358 359 360 358 358 359 360 362 362 360 359 359 359 359 360 360 359 357 357 354 356 354 353 351 351 351 350 349 348 347 346 344 346 343 342 345 346
316 314 314 313 314 314 316 318 323 325 323 320 321 320 321 324 327 331 331 331 333 334 334 334 335 335 336 337 339 340 341 342 343 344 346 347 348 349 351 352 353 355 357 359 361 362 363 363 364 365 366 365 365 365 364 362 364 365 363 362 361 360 363 363 361 361 362 362 362 361 360 359 359 359 358 357 356 356 356 356 355 353 351 351 351 349 350 348 347 346 346 344 343 345 345 347 346
315 313 312 311 314 312 309 316 321 323 321 319 321 318 320 324 328 330 332 332 333 335 335 335 336 336 336 336 339 339 340 341 341 342 343 345 346 348 349 351 352 354 356 357 359 361 362 363 364 365 366 366 366 366 366 367 368 368 367 366 364 361 358 361 361 361 361 360 358 359 359 358 357 357 356 356 357 357 357 356 356 353 352 352 351 348 348 347 348 347 346 346 345 340 340 342 346
314 313 313 313 310 314 315 313 319 321 320 321 320 318 317 322 321 325 331 333 332 333 334 334 335 336 338 338 339 340 340 341 341 342 343 344 345 346 348 350 352 352 354 356 358 359 361 362 364 365 365 365 366 366 366 368 366 364 363 363 362 360 360 358 357 356 357 358 357 357 356 357 357 356 356 356 356 357 356 357 356 355 353 353 351 349 349 348 349 349 348 347 345 343 339 340 343
311 313 315 314 314 315 315 316 316 314 314 319 316 309 310 320 321 322 328 330 329 332 332 332 333 334 335 335 336 339 340 342 342 341 342 343 344 346 348 350 351 351 353 355 358 359 362 362 364 365 365 365 365 366 367 366 362 360 358 356 354 354 353 352 350 352 353 354 354 357 359 357 357 357 357 357 358 357 356 355 356 356 353 352 352 351 351 350 349 348 348 347 346 346 343 338 339
308 310 312 313 314 314 315 315 314 310 308 316 319 308 305 318 318 322 327 328 328 331 331 331 333 334 334 334 335 336 337 339 341 342 343 342 344 345 347 349 350 350 353 356 358 359 362 362 364 365 365 365 365 366 367 363 361 360 359 357 356 354 353 354 357 359 359 359 360 358 357 358 358 357 357 358 358 357 356 355 355 354 353 353 353 352 350 349 348 349 348 348 347 347 344 340 339
306 312 312 312 313 312 314 315 314 313 318 318 318 315 308 308 315 324 327 326 327 328 330 331 332 334 333 334 334 336 337 338 339 340 341 343 344 344 345 348 350 350 353 355 356 358 361 362 364 364 365 364 366 367 366 363 360 360 359 358 359 358 357 358 359 360 362 362 359 357 357 357 358 356 357 358 358 358 357 357 355 355 353 354 353 351 351 351 350 350 350 347 348 347 345 342 340
309 310 312 311 313 314 315 314 312 314 312 310 314 315 309 308 315 321 326 322 325 326 328 330 332 333 334 334 334 335 337 338 339 339 340 341 342 344 346 348 351 352 353 354 356 357 360 362 363 364 364 365 365 367 366 364 362 361 359 359 358 360 360 360 361 361 359 358 355 356 355 356 357 356 357 358 358 359 358 356 355 355 354 353 354 352 351 351 351 349 349 347 346 346 345 344 343
310 309 311 312 314 316 316 313 312 312 310 306 312 314 307 307 316 317 323 322 323 325 328 330 332 333 334 334 335 336 337 339 339 339 340 341 343 344 346 349 351 351 353 357 357 358 359 361 362 363 363 364 366 366 366 364 361 361 360 361 360 360 360 361 360 357 357 357 353 353 353 354 355 355 356 359 359 358 358 356 355 354 353 349 350 348 348 348 348 347 347 346 348 346 346 345 343
310 310 309 309 311 313 314 315 314 311 304 306 313 314 311 303 313 316 316 320 324 326 329 332 333 334 335 336 336 336 336 338 338 339 340 342 344 345 346 347 350 353 354 355 355 356 358 359 361 361 362 364 365 366 365 363 362 361 360 362 361 361 361 360 356 356 355 354 351 352 352 353 354 354 355 358 358 358 358 356 355 352 351 351 351 349 347 345 345 345 345 346 346 345 345 345 344
311 308 308 307 308 311 311 310 312 303 300 309 312 313 313 302 307 318 324 327 327 327 327 329 330 332 334 335 335 336 337 338 339 339 339 341 343 344 346 346 349 352 354 354 354 356 357 359 360 360 362 363 364 365 364 362 361 361 361 362 362 362 362 359 356 354 353 353 355 355 355 355 354 355 356 356 355 355 357 356 353 352 351 350 349 348 347 346 344 344 345 345 345 345 347 346 344
309 308 308 303 300 302 298 303 299 300 299 307 310 314 309 308 312 321 322 324 326 328 328 329 331 332 334 335 335 336 337 339 339 340 340 341 342 343 344 346 349 352 352 354 354 354 356 358 360 359 360 363 363 365 363 363 361 361 360 360 362 363 362 360 357 357 355 353 354 354 354 353 354 352 353 353 353 354 355 353 352 350 349 350 349 347 347 347 347 345 346 344 343 344 344 344 343
307 305 305 302 297 296 293 297 301 302 305 308 307 315 306 313 316 321 320 322 324 327 329 330 331 333 334 335 336 335 337 338 339 340 341 342 344 344 345 347 349 351 352 353 354 355 356 357 359 359 360 363 363 363 363 362 361 361 362 361 361 362 362 360 358 356 355 354 354 354 352 351 351 350 350 350 350 352 352 351 351 349 349 349 350 347 347 348 348 346 346 344 343 344 345 345 344
306 309 307 304 303 298 294 297 295 297 301 306 311 306 305 304 309 321 323 325 327 326 327 330 331 332 334 335 335 336 336 338 340 341 341 342 345 346 346 348 349 350 351 352 354 355 357 357 358 359 360 362 362 362 363 363 362 361 361 362 362 363 361 359 357 356 355 353 352 353 353 351 349 350 350 351 353 353 352 351 349 347 347 348 348 346 345 347 349 348 346 346 344 344 345 345 344
308 308 310 307 303 308 300 303 301 302 301 302 306 305 312 310 322 322 323 321 323 324 325 327 328 330 332 332 332 333 334 336 339 340 341 344 346 347 347 348 349 350 352 352 354 356 356 356 358 359 360 361 362 362 362 362 362 362 362 361 361 361 361 359 357 355 355 353 351 352 352 353 351 351 353 353 352 352 351 349 349 347 347 346 346 346 345 343 346 345 345 346 345 346 346 346 345
305 305 302 305 313 308 306 304 302 303 302 300 311 308 311 316 317 319 322 322 323 327 325 324 326 328 331 331 332 333 334 335 337 339 341 344 346 347 348 349 349 350 351 352 355 357 357 357 357 358 360 361 362 362 362 362 362 361 361 360 359 360 359 357 355 353 351 351 351 351 351 351 352 352 351 352 352 352 351 348 347 345 346 345 344 345 344 344 346 345 343 345 345 343 347 346 344
305 302 306 309 311 312 308 299 302 300 296 301 306 304 306 306 303 324 318 319 320 323 325 324 326 329 328 329 332 334 334 335 338 341 344 345 346 347 347 349 349 350 351 354 356 358 358 358 358 358 359 359 361 362 361 362 361 361 359 359 360 359 357 356 354 353 351 349 349 350 350 350 350 350 350 350 352 351 350 349 347 346 345 344 343 343 345 345 347 344 344 344 342 344 344 344 344
308 306 312 305 300 300 311 306 296 296 295 297 302 306 306 308 306 314 316 318 320 324 327 324 324 326 327 329 332 335 335 336 337 339 342 343 344 346 348 348 349 351 354 356 357 357 358 359 359 357 358 359 360 360 362 362 361 359 359 359 358 356 355 354 354 354 352 349 346 347 347 349 350 350 350 350 350 349 350 348 348 346 346 346 346 345 347 345 347 344 344 342 343 346 344 341 343
306 310 308 310 308 307 302 303 308 303 297 296 298 301 300 310 311 314 313 319 326 324 326 323 324 326 328 329 331 333 335 336 336 337 339 341 343 345 346 348 348 351 354 354 355 355 355 356 358 358 358 360 360 360 361 359 359 359 359 359 357 355 354 353 352 352 349 347 347 346 347 347 348 349 349 349 349 348 348 347 345 343 343 343 345 344 345 345 346 345 343 341 341 346 344 342 340
303 304 304 305 307 309 309 308 304 301 299 298 297 296 303 312 318 316 319 321 324 324 325 329 328 327 328 330 331 334 335 336 337 338 339 341 343 344 346 349 350 352 354 353 353 353 354 355 356 357 357 358 358 359 359 359 360 359 358 356 355 353 351 350 349 349 349 348 347 347 347 347 349 348 349 348 348 349 349 347 345 345 344 344 346 344 346 347 347 346 346 345 345 346 344 342 342
304 304 303 305 303 302 298 298 304 305 301 296 297 296 307 313 319 321 321 323 322 326 326 327 328 328 330 330 332 335 335 338 339 338 339 340 343 344 346 349 351 351 352 352 353 353 354 354 355 356 356 356 356 357 360 360 360 358 357 356 354 352 350 348 346 347 347 348 347 346 346 347 346 347 348 347 348 348 348 347 345 347 347 346 347 347 345 347 346 345 344 345 344 345 345 343 342
Wind_Speed
11 8 7 7 3 1 2 1 1 2 0 6 4 0 5 2 5 8 8 9 6 3 3 6 5 4 1 4 9 8 7 2 2 3 4 4 6 7 7 7 7 9 8 7 8 10 10 11 13 13 12 13 13 13 13 14 13 13 13 13 12 12 12 13 12 11 10 10 9 9 8 7 7 6 6 6 6 6 6 6 7 7 8 9 9 10 9 9 8 8 8 9 8 8 9 9 9
8 8 7 6 3 0 1 2 2 3 3 6 6 2 4 5 6 7 9 6 4 6 7 10 10 11 13 13 9 6 9 5 2 3 6 7 8 7 7 7 8 10 8 8 9 10 10 11 13 12 12 13 13 12 12 13 13 13 13 13 12 12 12 12 12 11 10 9 9 8 8 7 7 6 6 6 6 6 6 6 7 7 7 8 8 9 8 8 7 8 8 8 8 8 8 8 9
7 8 6 4 3 3 1 1 2 2 6 6 4 3 3 6 6 5 4 6 11 11 11 10 9 6 6 5 5 4 2 5 8 8 7 10 10 7 7 7 9 10 10 7 8 9 9 11 12 13 11 13 13 12 11 12 12 13 13 13 12 13 13 12 12 11 10 9 9 8 8 7 7 6 6 6 5 5 6 6 6 6 6 7 7 8 8 6 6 7 8 8 8 6 7 8 8
7 5 5 4 2 3 1 2 3 2 6 5 5 3 5 7 6 7 8 12 12 10 7 5 3 5 1 8 7 9 9 5 5 8 8 9 5 9 8 9 9 8 8 8 8 8 9 11 12 13 10 5 12 12 12 10 12 12 12 12 11 12 13 12 12 12 11 10 9 8 8 7 7 7 6 5 5 5 6 6 5 5 5 6 7 7 6 5 5 6 7 8 8 7 7 7 7
6 4 2 2 2 2 2 2 2 1 6 3 5 4 5 7 10 11 10 8 4 4 5 7 7 6 9 9 2 2 5 6 6 4 6 5 8 9 10 10 9 10 9 8 8 8 9 15 16 16 14 10 6 13 10 12 12 13 12 11 12 11 13 13 12 12 11 10 9 9 8 7 7 7 6 5 5 5 5 5 4 4 4 5 6 6 5 4 5 6 7 7 7 7 6 6 5
6 4 2 3 2 1 2 3 3 2 4 1 6 5 7 9 13 12 10 7 7 8 6 5 5 6 5 6 3 7 8 5 6 4 7 8 11 11 11 10 10 10 9 9 9 8 9 12 14 17 17 14 11 13 12 10 11 14 14 13 13 12 13 13 12 11 11 10 9 9 8 8 7 7 6 5 5 5 5 4 4 3 3 4 5 5 5 5 5 6 7 8 7 7 7 4 5
5 3 1 2 2 1 1 2 3 3 3 3 4 8 10 10 10 14 12 10 7 8 2 9 13 13 10 6 9 6 2 5 6 6 6 11 11 12 12 10 10 11 10 9 9 9 12 14 14 17 19 21 15 14 13 11 12 13 14 13 14 13 12 12 11 11 11 10 9 9 8 8 7 6 6 5 5 5 4 4 3 3 3 3 4 5 5 5 5 5 6 6 6 8 6 5 4
1 2 1 1 1 2 3 2 3 1 4 2 2 10 10 11 11 10 10 8 7 5 9 9 3 8 9 1 6 5 5 3 6 8 11 11 12 12 12 11 10 11 10 9 9 9 12 14 15 16 16 16 15 15 12 11 11 13 13 14 13 12 12 11 11 10 10 9 9 9 8 7 6 6 6 5 5 4 4 3 3 2 2 3 5 5 6 5 6 6 6 7 8 9 10 5 4
2 0 1 2 2 2 4 3 2 2 3 4 5 5 9 10 8 9 9 6 10 10 8 8 6 5 5 10 8 4 6 9 11 12 11 12 12 12 9 11 11 11 11 10 9 9 10 11 12 12 13 14 16 16 17 15 12 13 14 13 12 12 11 10 10 9 9 9 9 8 8 7 6 5 5 4 4 4 3 2 2 2 3 4 5 5 6 6 6 7 7 7 9 11 11 9 6
2 3 1 2 1 5 3 3 3 2 3 4 6 9 10 9 7 6 11 11 9 11 6 3 2 11 11 11 9 4 6 11 13 12 11 12 11 11 11 12 12 13 11 10 9 8 7 11 11 11 12 14 14 16 15 12 13 13 12 12 11 11 10 10 9 9 8 8 8 7 7 6 5 5 4 4 3 3 2 2 3 4 5 6 6 6 6 6 6 7 8 9 15 17 10 9 9
2 1 1 3 4 4 4 4 3 4 5 4 5 7 9 8 8 9 8 11 8 8 8 12 12 13 10 8 5 5 9 12 14 13 12 11 10 10 10 11 12 11 11 11 9 8 9 10 12 11 12 12 14 14 16 16 14 11 10 11 11 10 10 9 9 8 8 8 7 7 6 6 5 4 3 3 2 2 2 3 4 4 5 6 6 7 7 7 7 8 10 11 18 7 7 7 10
3 2 2 1 5 3 4 5 6 5 6 6 6 8 6 9 10 10 12 13 8 10 10 7 8 12 11 9 6 8 11 13 13 12 13 12 10 10 9 8 10 10 10 10 9 9 9 9 10 11 11 11 11 11 11 12 12 11 10 10 11 10 10 9 9 8 8 7 7 6 6 5 5 4 3 2 2 1 2 2 2 3 4 6 6 7 8 9 9 9 8 13 10 5 4 7 9
2 2 2 3 3 2 5 6 5 7 6 7 9 6 7 10 10 12 11 11 10 11 9 3 16 7 8 9 7 10 13 13 12 13 13 11 11 10 10 10 9 10 9 9 10 9 9 9 9 10 10 12 11 9 8 9 10 11 11 10 10 10 10 10 9 8 7 7 7 6 6 5 5 4 3 2 1 0 1 2 3 4 5 6 7 8 8 8 8 8 8 15 8 6 5 5 6
2 1 2 2 1 4 6 5 7 7 5 7 6 8 8 7 7 12 12 12 11 6 6 14 9 9 12 11 9 10 12 14 14 13 11 12 10 10 11 10 11 11 10 9 9 9 8 8 8 9 10 9 9 8 7 6 9 9 10 10 11 10 10 9 9 8 7 6 6 5 5 4 4 3 3 2 1 1 2 3 5 5 6 7 7 7 8 7 8 8 8 11 5 5 2 2 5
3 1 0 3 5 6 3 6 10 8 6 9 8 10 9 2 8 8 10 15 7 6 12 5 8 9 8 15 11 14 15 16 15 13 12 11 11 10 11 9 10 10 9 9 9 8 8 7 8 8 8 8 9 7 7 9 11 11 11 11 11 10 10 9 8 7 6 5 5 4 4 4 3 3 2 2 1 3 3 4 3 6 6 7 8 9 8 8 8 8 9 13 5 6 5 5 6
2 2 0 3 6 7 6 2 7 6 5 10 10 10 7 6 8 9 3 1 9 9 11 6 5 3 7 7 11 16 19 17 14 14 12 13 11 10 10 10 9 9 8 8 8 7 8 8 8 7 8 8 8 8 8 9 11 11 11 10 10 9 9 8 7 6 6 5 5 4 4 4 4 3 3 3 2 4 4 5 5 6 7 8 9 9 10 10 10 9 9 13 4 3 3 5 4
3 3 2 2 7 7 7 6 10 7 7 10 12 12 9 8 8 2 2 8 14 14 5 7 6 4 11 3 14 17 19 17 15 15 14 12 10 9 8 8 8 7 6 8 8 7 9 9 9 7 8 9 9 9 8 8 9 10 9 9 9 8 8 8 7 7 6 6 5 4 4 4 3 2 2 2 2 3 4 5 7 7 8 9 10 10 10 10 10 10 10 13 7 2 1 3 1
3 2 2 4 3 10 9 11 12 6 12 13 14 14 11 12 9 6 9 8 10 10 5 7 3 3 10 10 15 17 19 18 16 16 15 12 10 10 10 8 9 9 8 8 9 9 9 9 9 8 8 8 7 6 5 6 7 8 7 7 7 7 8 8 7 6 6 4 5 4 4 3 3 2 2 2 3 4 5 5 7 8 9 9 9 9 8 9 10 9 9 9 7 5 3 3 3
4 2 2 4 6 5 7 9 9 9 12 13 13 12 12 10 12 8 8 11 12 10 7 8 7 10 11 15 17 17 19 17 17 16 18 16 14 14 12 11 10 10 10 9 8 10 8 8 9 9 8 8 7 6 5 5 6 4 5 5 5 7 7 8 6 6 5 5 5 4 4 4 3 3 2 3 4 6 7 6 7 8 8 7 7 8 7 7 8 8 8 9 6 5 3 2 2
5 2 4 5 3 6 8 10 12 7 13 15 14 12 11 11 9 8 8 14 12 13 11 9 11 13 14 17 18 18 17 17 17 17 18 17 15 15 14 14 12 11 11 10 9 8 8 7 9 8 9 8 7 6 5 5 5 6 5 6 5 6 6 6 6 6 5 6 5 5 4 4 4 3 3 5 6 5 4 4 6 7 6 5 6 6 5 4 6 5 6 6 4 3 3 3 2
4 5 6 3 5 7 7 13 13 8 16 15 13 12 10 12 9 10 12 12 11 9 13 18 16 16 17 19 18 18 18 18 17 17 17 17 15 13 13 13 13 11 10 9 9 9 10 9 8 8 8 8 8 6 5 5 5 5 5 5 5 5 5 6 6 6 6 6 6 5 5 4 4 4 3 3 4 4 4 4 4 4 4 5 4 4 4 3 4 4 3 4 3 3 3 3 3
3 7 9 4 4 8 9 13 14 11 12 15 14 15 12 11 9 10 17 12 11 13 14 9 16 18 20 20 19 18 19 18 18 17 17 17 17 15 13 11 10 10 9 10 11 10 10 10 10 8 9 9 8 7 6 6 5 5 5 6 6 5 6 6 5 6 6 7 6 6 5 5 5 4 4 4 4 3 4 4 4 3 4 4 2 3 3 3 3 3 3 3 2 2 3 3 3
6 7 8 7 7 8 6 11 12 15 13 14 15 13 13 14 9 12 18 11 2 5 11 12 14 17 18 18 18 18 19 20 19 19 17 17 16 15 14 13 13 12 11 10 10 9 10 10 10 9 9 8 9 7 6 5 6 6 6 6 6 6 6 6 6 6 6 6 7 6 5 5 5 5 5 4 4 4 4 4 3 3 4 4 3 3 3 3 3 2 2 2 2 2 2 3 3
8 8 4 10 7 9 10 13 14 15 18 18 12 13 14 13 11 12 15 5 3 4 11 12 13 15 19 19 18 18 18 19 20 18 18 18 17 17 14 13 12 11 11 12 11 10 10 12 11 11 9 9 8 8 8 7 6 6 6 6 7 6 6 7 6 6 6 6 7 6 6 5 5 5 5 5 5 4 5 4 3 3 3 3 2 2 3 3 2 2 2 2 2 2 3 3 4
11 11 6 3 5 6 10 12 15 16 14 12 14 15 16 16 7 13 15 8 2 9 14 14 15 16 17 18 18 17 16 16 16 16 14 13 14 14 13 10 11 10 11 12 10 9 10 10 12 12 11 11 8 8 8 6 6 6 6 6 7 7 7 7 6 6 6 6 6 7 6 5 5 6 6 6 4 5 4 4 3 3 2 2 2 2 2 2 2 2 2 3 3 3 3 4 4
10 12 6 2 5 7 11 11 15 15 8 13 14 12 9 7 8 11 10 6 7 12 15 16 16 17 18 18 17 17 17 18 16 16 16 13 13 15 14 11 11 11 11 11 10 9 9 10 12 13 12 11 9 9 8 8 7 7 7 7 6 6 8 7 7 6 6 6 6 7 7 6 5 5 6 5 5 5 4 4 3 3 3 1 1 1 1 2 3 3 3 2 3 3 3 3 4
7 10 9 8 5 8 11 15 14 14 12 18 16 11 10 6 7 6 7 8 11 14 16 16 17 18 18 16 16 15 16 17 18 15 14 13 13 13 13 12 12 11 11 12 11 9 9 10 11 11 11 12 10 9 8 8 8 8 7 7 7 7 7 6 7 7 6 6 6 6 6 6 6 6 5 5 4 4 4 4 4 3 3 1 1 1 1 2 2 3 3 3 3 3 3 3 3
3 5 4 1 3 7 11 12 14 11 7 12 12 9 7 6 6 6 10 11 14 15 16 17 17 17 15 16 15 15 14 14 14 15 17 17 13 13 13 12 12 12 12 12 10 9 10 12 11 11 11 10 11 9 8 9 8 8 8 7 7 7 7 7 7 7 7 7 6 5 5 5 6 5 5 5 5 4 4 4 4 3 2 1 1 1 2 1 2 2 2 2 2 2 2 2 2
4 9 3 2 7 7 11 14 15 15 8 11 12 9 6 9 10 5 12 12 14 15 16 17 17 16 15 15 14 14 15 15 15 15 16 13 11 11 13 12 11 11 9 11 10 10 12 11 10 10 10 10 11 11 9 9 9 8 8 7 6 7 7 7 7 7 7 7 7 7 5 6 5 5 5 5 5 5 5 4 5 3 2 1 1 1 1 1 2 2 1 1 2 2 3 2 1
8 5 7 7 6 6 8 5 12 12 8 16 15 8 11 15 9 7 13 14 14 13 13 15 14 14 14 14 13 14 14 15 16 15 13 13 12 12 12 12 11 10 8 8 10 11 9 8 8 8 10 11 12 10 9 8 8 7 7 7 7 7 7 7 7 6 6 7 7 8 7 7 7 6 7 7 6 5 5 5 4 4 2 1 1 1 2 1 1 2 2 2 2 2 2 2 2
7 6 5 5 8 7 9 8 13 10 7 16 16 11 9 11 11 9 13 16 17 15 15 16 14 14 13 14 13 13 15 16 16 15 13 12 11 11 12 12 12 11 8 9 12 12 11 9 7 7 9 11 11 10 10 9 8 7 7 6 6 7 7 7 7 6 7 7 7 6 7 6 6 6 6 6 7 7 6 6 5 3 1 2 2 1 1 1 2 2 2 2 2 1 1 1 2
6 7 5 3 8 6 8 3 15 13 6 13 13 10 11 8 12 13 13 15 17 15 15 16 15 14 14 13 14 14 14 15 16 14 14 14 12 11 12 13 13 12 11 10 11 11 12 11 9 9 10 12 11 11 10 9 8 7 6 6 7 8 7 7 6 6 6 6 7 6 7 7 7 8 8 7 7 7 7 6 5 2 2 3 1 1 2 3 2 2 2 2 2 1 2 2 2
3 6 5 9 6 7 7 8 11 7 14 10 17 7 5 5 10 14 14 16 16 14 15 15 16 17 15 13 13 12 12 14 15 15 14 13 12 11 11 12 12 13 12 11 11 11 12 12 11 12 12 12 12 12 11 10 7 7 8 8 9 8 7 7 6 4 1 5 6 6 6 7 8 8 8 8 7 6 6 6 4 2 2 3 3 4 3 2 2 2 2 1 2 2 3 4 3
8 3 5 7 12 9 7 8 10 8 16 13 14 10 6 6 8 14 16 17 16 14 15 16 15 14 15 13 13 13 13 13 15 15 16 14 11 14 11 12 13 13 12 12 12 12 12 12 11 12 10 11 10 11 10 9 8 9 8 8 8 7 8 6 3 4 5 6 7 8 7 7 6 7 7 7 6 6 6 6 4 4 3 3 3 3 2 1 2 3 3 1 2 3 4 4 4
9 7 6 5 3 14 10 11 13 12 16 15 16 15 15 3 7 11 14 16 16 15 15 16 15 15 14 13 13 14 13 14 15 14 15 14 14 14 12 12 12 13 11 13 12 11 10 10 10 10 10 11 10 10 10 9 9 7 7 7 7 6 5 6 6 5 6 8 9 9 7 6 7 7 7 7 6 5 5 5 4 4 4 3 2 3 3 3 3 3 3 2 2 2 3 3 3
13 14 11 10 10 10 9 7 10 16 15 14 16 16 17 5 6 9 12 14 15 14 13 12 14 14 14 14 13 13 13 16 12 13 15 13 13 13 13 12 12 12 11 11 12 12 11 11 10 10 10 11 10 10 9 8 7 7 8 8 8 7 6 6 6 6 6 8 8 7 6 6 6 6 7 6 5 6 6 6 4 4 3 2 2 3 3 3 4 4 3 3 3 3 2 2 3
8 6 8 12 12 7 7 6 8 13 9 13 12 10 5 4 6 9 11 12 13 13 15 13 13 13 14 13 14 15 15 15 12 13 14 14 14 13 13 12 12 13 12 12 12 12 12 11 11 12 11 12 10 10 10 9 9 8 8 10 9 8 7 6 6 6 6 8 8 7 7 6 6 6 7 7 7 5 6 4 3 3 2 2 3 3 3 3 2 3 2 2 4 3 2 2 2
13 10 9 8 9 8 9 8 11 12 11 9 5 5 9 5 4 8 10 12 16 17 16 16 15 14 13 15 16 16 16 10 11 11 13 13 13 14 13 11 13 14 13 13 14 13 12 13 12 11 10 11 12 11 10 10 9 9 9 9 8 7 6 7 7 7 8 8 8 8 7 7 7 7 6 6 5 6 5 3 3 3 2 3 3 3 2 2 3 2 2 2 2 3 3 3 2
11 10 9 6 5 7 6 7 9 10 11 8 5 11 10 5 5 8 13 15 14 15 16 15 14 15 13 14 15 15 13 12 13 15 14 14 15 15 13 12 13 14 14 14 14 13 13 12 11 11 10 10 11 11 11 10 10 10 9 7 8 7 7 7 7 7 7 7 7 7 7 6 6 6 6 6 6 6 5 3 3 4 4 3 3 3 2 3 2 3 3 2 2 2 3 2 2
10 7 7 10 8 10 7 6 10 10 7 5 5 9 8 3 6 10 13 15 13 13 14 14 14 16 17 17 16 14 15 14 15 15 17 16 16 14 13 12 13 13 12 13 13 14 12 11 11 11 10 10 10 10 10 9 9 8 7 7 7 8 7 8 7 6 6 7 7 7 7 7 7 7 7 7 6 6 4 4 4 4 4 4 3 3 4 4 4 4 4 4 2 2 2 1 1
9 12 13 9 11 13 8 8 6 8 3 3 5 6 9 7 9 9 11 13 13 13 13 14 14 15 14 13 14 15 17 16 15 16 16 16 16 16 15 14 13 13 13 13 13 13 9 13 13 12 11 11 10 10 10 9 8 8 7 3 4 5 4 6 6 6 7 7 7 8 9 8 8 8 8 8 7 6 5 5 4 4 4 4 4 4 4 4 3 3 3 3 4 2 1 2 2
8 11 12 13 16 13 8 13 11 6 6 8 8 5 11 8 13 14 9 11 15 14 14 17 17 16 14 15 15 14 15 14 16 17 17 16 16 15 14 14 14 13 14 13 13 14 13 12 12 12 10 9 10 11 11 10 11 10 9 8 9 8 8 8 9 9 8 9 9 8 8 9 7 6 6 8 7 5 6 6 6 4 5 5 5 4 3 3 4 4 4 3 3 3 2 2 2
9 9 8 9 12 12 11 13 11 7 11 11 13 12 11 4 9 12 11 12 15 13 17 18 17 16 16 15 15 15 16 15 14 15 15 16 16 16 15 15 16 15 15 13 13 13 14 13 13 12 11 9 10 11 12 12 12 11 13 13 12 12 11 10 8 5 6 6 6 7 7 8 8 7 7 7 6 7 6 7 7 6 5 5 4 4 4 4 4 4 3 4 4 4 4 3 2
10 6 13 8 11 14 15 14 14 7 2 5 14 11 12 10 9 8 11 12 12 15 18 19 18 18 19 17 18 16 16 17 15 16 16 16 16 17 18 17 16 17 15 14 13 13 14 14 13 12 10 10 10 10 12 14 13 12 13 14 12 10 9 8 7 6 5 4 5 6 6 7 8 9 7 7 7 7 8 7 6 6 6 6 5 5 5 4 3 3 4 3 3 3 4 2 2
3 6 15 13 14 13 15 14 12 6 7 4 8 2 5 8 5 2 11 11 13 17 19 20 21 20 20 20 19 19 19 17 17 15 17 17 17 17 16 16 17 16 14 14 14 13 13 14 13 12 11 11 10 12 12 14 14 14 14 13 12 8 9 7 6 5 5 6 8 7 7 7 7 8 8 6 7 7 5 6 8 8 7 6 5 4 4 5 5 4 5 4 4 3 3 2 2
1 5 5 6 4 8 14 11 10 5 8 9 10 12 9 11 4 4 6 10 13 18 20 21 22 21 20 20 20 20 17 16 17 18 17 17 17 16 16 15 14 14 14 13 14 13 13 12 13 13 13 11 11 13 12 14 16 14 14 12 12 9 7 6 5 5 5 7 9 9 7 7 8 8 7 6 6 6 7 8 8 8 7 5 4 4 4 4 4 4 4 4 4 4 3 3 3
10 12 11 7 6 4 4 3 3 5 8 10 12 15 12 10 7 10 9 10 15 14 12 14 15 17 20 19 19 18 17 16 15 17 17 17 17 16 15 15 15 14 13 14 14 14 13 13 14 15 14 11 12 13 14 16 16 15 15 13 13 11 10 8 7 7 5 9 9 9 9 8 9 9 8 6 6 7 8 8 8 7 6 5 4 4 5 5 5 4 4 4 5 5 4 4 3
14 6 9 9 6 4 3 2 3 7 7 8 8 15 16 12 7 7 12 10 13 14 15 17 18 21 20 19 18 19 18 16 16 15 16 17 15 14 14 16 16 15 14 14 15 14 14 13 13 15 14 14 13 13 15 17 16 16 15 15 13 12 10 8 9 9 9 10 9 8 7 7 8 8 6 6 6 8 7 7 7 7 5 5 5 5 5 5 4 4 4 4 4 4 4 4 4
8 9 12 12 5 5 6 4 8 9 8 3 2 9 6 14 15 2 8 14 11 12 14 15 17 20 19 20 20 17 17 17 17 16 15 15 15 16 17 16 15 15 15 16 16 15 14 14 15 16 15 14 14 14 16 18 16 16 15 15 13 10 10 10 10 10 9 8 8 7 7 7 6 6 7 8 8 10 8 8 7 6 5 5 5 5 5 5 5 5 5 5 4 5 4 4 4
10 13 11 12 7 9 7 5 2 2 6 3 1 11 11 2 12 16 15 16 19 17 15 10 8 11 16 18 16 15 16 18 18 17 17 15 15 16 17 17 16 14 16 16 16 15 13 13 14 16 16 14 14 14 16 18 18 16 15 14 14 12 10 10 9 9 8 8 7 8 9 9 9 10 9 9 9 9 8 8 8 7 7 7 7 7 6 6 6 5 5 5 5 4 4 5 5
11 6 13 11 8 9 8 6 8 7 5 4 5 7 5 8 4 4 15 16 11 9 13 10 9 8 10 14 15 18 19 18 15 15 16 17 17 18 17 16 16 16 18 17 15 15 14 13 14 16 16 15 15 15 14 16 15 16 15 14 14 12 10 10 9 8 8 9 8 9 9 9 9 9 9 9 9 9 9 8 9 9 8 8 8 7 7 6 6 5 4 5 4 4 5 5 5
10 5 3 8 12 6 11 5 7 7 4 4 7 6 3 6 5 7 4 7 8 9 12 11 13 11 10 12 16 18 18 19 17 17 17 17 17 17 16 16 16 15 17 16 16 15 15 15 16 17 17 15 14 15 14 15 14 14 15 16 16 15 9 9 8 8 8 9 9 9 9 8 8 7 7 8 9 9 10 10 9 9 9 9 8 8 8 7 6 5 4 4 5 3 4 6 6
7 5 14 8 7 11 5 3 5 4 1 7 5 4 5 5 10 15 11 7 14 8 8 10 12 12 12 13 15 18 18 18 18 18 17 18 17 18 17 16 16 16 16 17 16 17 19 17 16 17 16 14 15 15 15 14 15 14 16 18 17 14 12 12 10 11 12 10 9 9 9 9 8 7 7 7 8 9 10 11 10 10 9 9 9 8 8 7 6 6 5 5 5 5 4 5 5
7 11 9 6 4 2 6 9 4 7 10 5 7 8 5 3 5 1 2 7 13 11 11 9 9 12 15 16 15 17 19 20 20 19 18 19 19 20 19 18 19 19 19 19 19 18 17 17 17 17 15 16 15 15 15 14 15 15 17 19 15 12 12 12 11 11 10 9 8 7 8 8 9 8 7 7 8 10 10 11 10 10 9 9 9 9 8 7 6 5 6 5 5 5 5 5 5
9 7 13 13 7 11 1 2 8 8 10 6 5 8 8 7 8 1 5 4 8 10 7 7 10 13 16 16 17 16 16 15 16 18 15 17 17 18 18 19 20 20 19 19 18 18 15 15 16 17 18 18 16 13 13 12 14 15 15 13 13 12 11 10 10 10 9 10 11 9 9 9 8 8 8 8 9 10 9 9 9 9 9 9 8 8 8 7 6 6 6 6 6 4 5 6 6
3 3 13 1 5 7 8 6 0 5 10 4 8 6 9 7 6 7 12 11 10 10 6 10 13 15 15 14 15 14 15 15 16 17 18 19 20 20 21 20 20 19 18 17 18 17 19 18 17 16 16 14 15 15 14 15 18 15 10 10 11 11 11 11 10 10 9 10 10 10 10 9 9 8 9 10 10 11 10 10 10 10 9 9 9 8 8 7 6 6 6 6 5 5 5 6 6
8 9 9 5 3 3 2 3 8 8 8 7 8 8 5 5 6 10 12 13 12 12 11 7 10 13 15 14 13 13 16 15 16 17 18 19 19 20 20 19 19 18 17 18 17 18 19 18 18 19 18 18 18 17 15 14 13 12 12 13 13 11 12 11 11 10 9 10 8 7 6 6 6 8 8 10 10 10 10 9 10 9 9 8 8 8 7 6 6 6 6 6 5 5 6 6 6
11 12 10 11 9 9 12 11 3 2 8 3 7 13 4 8 6 10 12 13 13 13 12 10 10 11 10 9 12 13 14 16 17 18 18 17 18 19 18 17 16 15 16 17 16 16 18 18 17 18 18 17 18 16 14 13 13 12 14 14 14 12 11 10 12 11 10 7 7 8 10 9 10 8 9 9 8 8 8 9 10 9 9 9 8 8 8 6 6 7 7 5 6 6 6 7 7
Wind_Direction
145 144 138 153 157 202 237 245 124 31 222 78 108 233 87 116 112 134 126 142 142 65 72 92 94 123 268 88 99 98 35 353 2 265 93 103 146 151 154 154 139 136 129 135 147 149 149 147 150 153 149 141 139 142 142 140 140 142 141 140 139 135 132 132 133 133 133 132 131 133 131 129 130 126 124 115 108 104 99 96 91 85 81 81 84 84 82 79 82 79 74 69 64 55 46 46 42
142 134 143 153 158 233 281 311 73 110 90 103 80 79 110 120 160 141 149 148 73 115 105 92 85 82 88 102 117 128 49 18 337 108 90 122 141 145 155 154 139 133 127 132 141 147 150 148 144 148 149 148 146 144 145 144 142 145 145 143 141 136 135 135 136 138 140 140 141 139 137 137 132 124 115 106 101 96 92 86 80 75 76 78 78 77 76 75 70 71 76 81 72 57 49 42 33
137 141 147 183 171 233 320 277 118 116 108 96 96 89 142 147 136 124 118 113 116 119 108 101 99 77 101 136 106 334 96 78 108 109 113 141 143 151 152 137 123 126 124 123 139 151 149 146 143 147 154 156 147 147 148 147 145 144 144 144 141 136 139 142 142 144 147 145 144 142 142 139 131 121 111 107 102 99 91 84 81 78 79 80 77 74 73 71 69 67 73 75 77 70 57 40 28
143 162 163 193 203 202 315 40 81 116 93 93 124 137 177 142 112 101 106 118 124 128 120 105 68 346 146 82 88 87 103 113 123 130 133 159 147 145 139 127 121 121 126 133 141 143 147 146 139 145 139 148 149 150 151 148 148 145 146 143 138 140 141 144 146 148 147 147 147 145 144 136 125 115 113 110 106 96 89 86 81 82 81 80 77 75 72 69 71 68 65 68 80 69 55 45 23
148 166 207 261 296 34 351 48 99 272 108 179 113 157 155 136 121 119 119 124 132 142 117 116 97 52 68 82 100 129 121 114 138 149 137 135 126 134 135 129 131 131 127 135 139 139 144 149 156 142 138 145 172 152 149 145 146 143 142 148 144 149 146 147 149 148 147 149 148 149 144 134 124 123 121 115 106 101 97 93 92 88 86 85 82 77 70 57 51 52 54 58 72 82 71 54 28
138 165 216 267 359 30 228 170 138 89 70 166 137 155 147 140 134 129 124 106 95 96 102 110 123 149 93 54 72 107 131 146 147 149 147 134 136 131 132 135 134 130 126 135 143 143 143 153 144 139 145 159 174 152 148 149 146 144 149 152 148 158 154 151 149 147 148 148 148 148 142 136 134 129 126 119 109 111 112 112 106 102 99 93 89 83 71 51 43 41 40 45 50 70 69 59 28
148 171 157 155 134 255 288 103 118 119 111 260 131 149 155 144 137 134 131 109 77 84 89 105 114 118 101 106 87 66 29 115 163 144 150 137 133 130 136 135 134 125 127 135 143 147 143 149 149 150 164 159 165 141 142 157 153 149 152 154 157 158 150 147 148 149 147 148 148 145 142 141 139 133 129 125 123 120 125 126 123 119 98 85 74 68 59 44 37 30 32 43 40 48 78 63 37
59 291 53 254 108 245 91 89 108 299 118 277 128 145 154 145 144 142 139 142 141 115 112 120 103 94 84 216 118 74 74 82 110 128 131 134 132 135 137 137 133 131 133 136 144 146 142 151 153 156 157 145 134 135 141 163 159 154 161 160 156 152 150 149 149 149 149 148 147 148 146 143 140 140 135 133 131 133 129 130 128 102 71 53 46 43 38 32 23 19 33 32 41 41 38 29 41
140 241 80 240 165 120 123 104 81 9 107 139 126 123 135 145 147 136 127 103 108 117 130 131 133 103 116 111 99 98 84 106 119 127 134 134 138 139 138 138 137 137 139 139 140 141 141 141 145 147 147 144 142 146 156 171 166 166 164 155 152 151 151 151 150 151 152 150 148 148 147 147 144 144 142 137 135 137 133 122 92 55 40 31 33 31 25 21 12 11 15 30 35 39 29 2 22
115 331 179 260 281 123 120 121 164 83 129 129 147 150 149 153 139 136 129 130 127 126 104 80 97 112 131 112 118 136 126 126 129 129 135 139 139 139 139 139 138 139 137 141 141 140 141 145 147 145 147 148 149 155 150 157 160 162 157 154 152 151 153 154 153 155 155 152 150 148 147 147 148 149 149 148 144 131 121 75 40 26 17 15 16 17 17 11 4 0 2 13 37 28 11 350 333
178 138 67 236 142 132 161 128 120 133 131 129 124 144 152 148 142 131 132 118 134 127 124 115 102 121 125 113 85 92 130 138 141 139 141 140 143 141 139 139 139 141 140 144 141 141 145 149 149 147 144 150 154 158 162 160 151 154 157 155 151 153 156 154 157 157 157 155 151 149 150 152 153 149 146 137 124 106 68 36 26 10 7 0 359 0 359 359 358 357 359 24 49 14 347 339 343
207 215 198 196 162 163 146 134 133 124 134 148 145 157 165 152 141 138 138 136 135 132 141 161 139 132 114 128 128 141 143 150 142 140 142 142 144 144 141 138 138 137 138 138 136 141 146 149 151 146 147 149 148 152 155 155 153 153 159 158 155 158 158 158 159 160 156 154 151 150 150 149 149 149 142 131 109 61 47 28 356 351 354 352 351 349 353 353 352 353 357 41 41 340 347 340 335
232 165 219 197 127 190 124 140 135 144 153 181 161 171 156 154 166 148 145 130 144 140 155 179 141 146 123 136 128 142 156 153 145 145 144 145 145 147 145 139 140 137 141 141 139 143 149 146 143 150 143 146 138 139 146 154 156 158 160 160 159 158 158 160 158 155 155 155 154 153 152 150 151 155 152 152 165 359 333 324 329 344 348 345 347 344 338 343 344 339 355 54 11 325 1 334 334
222 217 306 140 338 145 158 123 150 162 184 159 164 150 160 165 166 153 140 138 148 153 127 137 147 124 107 123 149 160 161 156 148 147 147 145 147 147 146 142 144 147 147 145 141 144 142 141 139 141 145 147 141 132 143 164 156 161 161 159 159 160 158 156 157 155 156 156 158 152 152 159 163 168 179 191 217 281 307 323 330 343 346 342 340 333 335 336 334 342 359 61 32 310 344 323 322
209 164 175 109 139 157 161 161 179 179 166 172 158 159 160 156 157 155 160 139 134 112 126 133 146 149 176 162 169 172 162 160 153 148 147 144 149 146 146 144 146 147 147 143 142 145 143 140 137 138 147 150 141 147 159 179 170 167 167 162 161 159 156 156 156 154 155 158 161 161 167 174 183 193 208 231 274 296 309 304 330 327 327 329 332 330 331 333 332 338 13 58 44 331 348 344 323
183 214 261 155 157 182 182 204 168 180 156 182 152 156 152 126 162 168 149 85 125 138 152 143 198 329 150 189 161 159 158 157 154 148 145 147 148 147 148 150 151 150 149 150 149 149 152 150 147 150 155 152 148 160 165 167 167 169 166 165 162 159 155 155 159 164 163 171 175 175 187 198 198 207 225 245 269 297 301 322 330 316 318 322 324 327 330 332 333 342 31 85 2 315 323 320 306
197 250 189 160 169 197 168 191 162 191 149 168 152 162 163 150 163 76 78 123 137 156 172 152 173 285 169 160 144 146 154 154 152 150 149 150 152 156 155 158 155 158 157 163 160 158 158 158 158 156 157 156 159 162 166 169 163 166 164 162 165 160 161 161 168 175 178 180 186 185 198 219 214 223 227 269 288 289 329 303 300 313 317 320 323 328 334 335 346 359 29 88 119 288 109 196 271
196 201 214 198 183 196 178 184 184 146 158 167 168 174 157 154 163 132 127 133 139 151 146 137 56 99 134 121 135 143 152 155 157 157 157 156 160 160 163 163 165 169 167 168 168 167 163 165 165 163 160 158 159 163 165 165 162 171 168 169 171 172 172 175 177 186 185 189 186 200 214 216 218 222 243 279 281 281 273 295 304 310 316 324 333 339 347 354 352 3 17 38 81 103 52 360 7
196 152 236 241 190 190 176 196 172 152 173 164 168 170 171 157 155 158 152 150 152 156 142 148 115 120 116 134 140 148 157 159 162 164 163 164 169 167 167 168 172 171 174 175 172 174 172 168 168 170 166 164 161 168 165 163 163 160 165 180 177 182 181 185 187 185 192 194 199 208 215 222 222 224 234 255 279 285 281 294 300 308 325 343 340 338 344 356 358 4 13 18 40 77 82 44 26
219 231 234 241 191 175 191 184 182 196 150 158 165 169 173 147 160 162 171 161 170 170 156 162 155 149 145 146 150 154 161 164 167 169 170 169 172 172 172 172 174 177 178 179 174 177 175 175 173 174 173 167 167 172 169 168 172 174 179 185 185 187 186 190 194 191 199 203 203 210 220 219 226 227 226 241 260 266 273 278 293 302 308 317 344 321 338 22 2 23 29 26 36 32 36 46 41
150 212 234 242 173 182 195 188 184 171 162 161 161 155 158 161 158 170 152 153 191 193 183 172 168 159 152 154 157 161 166 168 171 173 174 174 176 178 177 177 177 178 180 176 179 183 183 181 178 179 178 175 180 170 176 174 174 185 185 194 193 191 196 196 200 200 204 207 212 216 223 226 229 235 228 237 250 265 282 295 295 305 317 313 347 325 330 356 357 7 18 36 41 27 32 33 24
134 224 237 222 155 222 174 190 170 163 163 154 156 164 170 149 160 173 163 171 190 199 192 191 159 158 157 160 162 165 169 172 175 175 178 178 180 180 179 179 179 179 180 186 187 186 189 187 186 181 182 186 184 186 186 177 173 192 191 197 194 195 200 200 205 206 206 213 217 220 224 228 237 243 242 243 251 262 274 281 290 297 301 303 330 321 340 354 352 5 17 27 31 34 39 26 16
229 233 252 242 186 215 158 175 162 149 155 162 171 167 136 163 176 181 180 190 72 198 180 167 164 157 156 158 161 169 172 175 179 181 181 182 183 187 184 182 180 182 185 191 188 189 190 192 192 187 185 189 191 188 188 183 188 196 199 197 200 200 204 206 209 212 213 212 220 224 229 231 240 249 252 252 258 262 268 267 272 280 290 302 324 322 341 351 349 355 13 25 21 20 31 16 7
229 245 214 239 189 228 162 174 160 159 163 179 164 146 157 167 176 180 193 193 311 168 159 155 153 155 154 162 171 174 176 178 182 184 183 187 186 190 188 184 181 181 186 188 190 191 192 195 191 192 192 192 191 195 197 195 192 200 204 201 206 205 209 213 214 216 217 219 222 228 233 248 251 252 257 259 262 262 265 270 269 275 286 295 319 320 334 341 336 351 7 10 9 8 10 6 0
213 237 226 263 190 221 173 165 168 170 168 146 148 162 181 178 162 158 200 190 142 150 147 148 152 158 160 163 171 176 179 183 185 186 186 190 192 191 192 189 180 176 184 186 190 193 193 192 192 195 194 195 196 197 201 196 193 203 204 212 214 205 212 217 219 219 222 226 226 228 231 243 249 255 258 261 265 266 270 268 267 265 261 279 298 314 344 331 328 352 1 353 3 5 355 7 355
219 229 215 194 204 182 175 170 168 163 140 149 160 180 152 134 111 186 194 167 148 142 145 152 156 162 167 171 173 175 181 187 187 187 192 192 194 194 195 190 184 189 189 185 186 193 194 189 192 195 196 195 196 200 206 201 198 202 203 212 217 212 218 215 218 224 227 230 231 226 229 239 250 251 257 263 264 269 270 268 263 263 263 256 277 324 344 320 333 346 359 355 360 3 359 10 346
187 212 222 223 200 165 175 168 170 160 159 164 168 166 158 143 165 208 188 154 145 150 149 156 162 169 172 173 176 178 182 187 189 186 190 193 194 196 193 193 192 192 186 191 192 194 192 192 194 193 192 196 195 202 206 209 207 211 209 210 213 216 221 221 222 223 231 234 235 223 223 232 248 259 263 267 270 269 271 268 264 255 258 259 312 295 298 315 331 357 354 347 357 355 353 357 341
142 120 101 75 151 176 169 167 157 148 146 174 159 130 129 160 211 237 166 158 156 157 155 162 169 170 173 175 177 182 189 190 189 189 193 193 194 194 191 192 193 191 190 192 193 192 194 197 195 191 191 191 198 202 203 210 213 216 217 220 219 219 215 220 225 227 232 239 243 239 228 234 240 252 251 256 258 261 261 260 262 267 275 270 253 291 298 312 328 343 338 340 340 329 333 329 330
168 164 153 102 148 141 173 169 167 167 143 158 126 109 182 189 215 181 145 155 164 162 162 166 171 171 173 176 179 186 192 191 193 197 199 196 195 194 194 194 191 191 197 195 193 192 197 196 197 193 193 192 196 203 201 207 210 212 214 219 222 222 224 224 226 227 229 236 242 237 230 229 234 241 240 238 244 252 257 261 268 266 259 224 202 226 253 268 290 290 289 312 313 319 321 340 332
142 181 141 135 152 161 179 160 170 165 143 155 149 206 213 207 192 139 152 159 160 161 168 169 173 174 174 178 183 190 193 193 198 201 198 197 195 192 194 193 195 194 191 191 194 198 198 197 198 196 197 197 199 202 202 204 207 209 213 215 217 222 224 226 229 227 227 236 239 237 234 233 241 245 249 248 247 251 257 261 261 267 263 252 241 205 248 272 281 289 306 299 318 315 335 354 352
171 132 181 172 161 188 162 182 169 165 148 167 176 224 225 193 183 154 164 162 165 171 173 175 175 178 179 181 185 191 195 199 202 201 201 199 194 194 196 195 196 197 194 191 198 199 196 197 195 199 201 203 200 206 204 208 206 207 210 218 224 222 223 226 226 225 228 236 239 239 235 230 227 234 242 242 244 249 256 262 267 272 302 282 261 207 235 241 255 272 297 305 308 289 328 347 351
145 153 188 189 200 133 155 180 182 168 165 187 189 239 243 164 179 161 169 173 173 175 176 178 178 180 184 184 187 191 194 198 205 205 205 200 197 197 196 197 196 199 202 194 193 196 201 201 198 204 201 206 207 208 207 209 207 206 216 221 230 228 227 229 230 230 233 238 239 243 238 239 237 231 228 230 238 243 248 253 256 258 275 268 260 259 257 251 258 273 276 285 310 330 331 319 327
205 238 163 186 208 152 157 196 201 187 150 186 194 218 249 224 172 166 172 175 181 177 179 182 184 185 184 188 191 191 188 196 203 206 204 201 201 200 197 197 196 200 199 194 192 192 200 203 202 208 206 204 210 211 211 214 210 215 220 222 227 227 228 225 228 241 325 250 248 246 239 237 237 230 230 228 229 235 237 234 228 218 222 238 259 262 245 260 263 259 257 300 332 323 317 318 326
192 216 197 180 187 153 179 141 199 171 164 181 207 239 224 72 162 170 174 179 182 185 182 185 186 188 189 188 191 192 195 194 201 202 201 198 199 200 201 198 198 199 199 198 197 193 197 200 203 207 207 207 205 212 212 213 212 219 221 225 227 227 229 226 191 125 204 229 242 245 241 238 235 232 233 229 223 219 228 232 196 188 207 214 233 230 247 261 261 266 269 281 307 306 306 318 325
181 186 185 197 228 177 169 171 186 179 191 186 193 220 234 143 150 177 180 182 184 190 186 186 187 190 191 192 193 196 197 202 206 201 200 199 201 199 203 202 201 199 199 198 197 198 198 199 202 204 207 212 209 210 212 215 214 216 226 228 228 224 219 219 212 219 231 238 240 244 242 237 240 238 233 221 207 209 228 221 214 191 189 191 190 226 243 239 248 250 269 271 275 295 311 323 322
187 187 194 184 179 194 190 149 147 180 187 204 192 210 223 175 165 176 187 190 193 194 192 193 193 192 192 193 195 198 202 208 203 199 200 198 199 198 200 201 204 202 200 197 197 198 200 200 202 204 209 212 212 210 212 212 210 207 216 225 229 229 222 219 223 219 230 240 239 237 238 232 233 231 229 216 232 228 219 215 181 206 190 195 210 239 248 245 245 250 253 260 269 261 252 303 303
183 194 201 193 188 138 116 106 146 174 189 215 215 232 249 215 182 187 190 191 201 200 197 196 196 195 195 197 198 201 205 209 195 195 196 199 198 196 199 198 201 202 202 197 195 199 201 201 200 205 209 211 210 209 213 213 210 205 219 226 228 223 223 217 227 236 233 231 227 227 231 228 225 223 223 220 217 219 234 219 172 173 169 178 224 244 253 266 248 241 268 280 290 292 280 282 288
181 191 208 203 193 181 169 146 158 166 191 210 236 257 247 258 197 196 191 198 208 205 201 202 199 198 198 199 200 202 208 202 196 193 199 201 202 201 198 199 198 198 201 199 200 200 201 202 203 203 202 207 212 206 207 210 211 210 211 217 223 223 218 219 222 221 223 223 219 215 221 226 225 225 225 221 222 218 208 194 183 161 178 200 213 227 236 237 234 228 233 251 254 287 289 284 302
184 192 196 199 187 91 93 118 152 159 193 223 163 231 240 235 225 202 201 206 216 211 207 205 200 201 202 203 204 205 201 196 194 201 201 206 205 202 199 201 202 202 198 198 200 199 200 202 204 202 199 198 207 206 208 211 209 209 208 210 212 222 221 223 230 228 224 225 216 216 222 224 223 223 222 219 219 214 210 187 168 172 185 195 204 216 230 232 228 227 217 242 240 243 271 278 253
186 181 167 213 164 176 166 154 149 166 187 230 173 234 247 213 223 221 213 213 217 217 214 210 206 206 204 203 201 203 204 198 200 201 202 203 204 202 201 202 202 201 199 199 198 200 200 203 204 201 200 197 198 199 204 205 203 201 209 225 217 231 232 227 230 225 217 217 216 212 216 218 216 220 214 209 208 205 190 184 171 179 187 194 206 215 212 217 206 203 203 218 227 254 230 141 23
195 188 198 185 159 202 201 153 126 129 67 91 131 241 256 210 218 218 214 213 221 218 216 219 219 220 217 214 211 206 203 198 200 202 203 200 200 204 202 202 200 199 200 199 198 199 200 203 203 201 199 198 197 196 200 201 205 212 208 175 190 205 216 221 215 218 216 215 222 217 219 211 210 211 205 203 200 188 186 189 185 183 185 193 201 214 221 224 220 219 213 222 216 234 201 208 195
198 217 209 181 179 186 111 128 132 181 209 204 192 262 258 204 211 224 196 193 216 214 215 218 218 219 212 214 214 211 215 207 199 200 200 199 198 200 203 201 200 203 204 203 199 200 200 204 204 201 199 196 195 196 197 199 212 211 206 208 211 215 220 209 218 222 217 217 224 221 209 208 200 196 194 199 196 184 184 193 196 186 197 205 207 219 225 220 220 215 210 218 215 193 199 209 224
190 206 201 166 170 163 154 161 174 195 227 194 188 226 253 132 217 213 196 198 210 208 218 221 218 219 213 214 216 213 210 210 210 209 202 199 199 197 199 198 202 205 206 200 200 203 202 203 203 200 200 196 195 195 193 203 207 212 213 216 219 220 222 226 221 209 203 202 211 206 208 207 205 201 195 194 192 189 188 196 199 201 207 217 213 214 209 214 207 205 188 199 195 169 182 206 219
205 114 162 158 155 162 166 173 193 211 72 81 189 212 248 268 246 192 193 207 210 214 219 221 219 216 215 214 214 212 209 208 205 206 206 205 198 197 199 199 200 205 202 197 198 200 201 203 203 202 200 196 192 191 193 205 208 210 215 218 218 215 213 210 195 204 201 195 198 204 203 199 196 202 195 184 186 187 194 189 197 207 212 210 196 196 211 209 204 184 170 173 169 182 187 211 188
182 153 155 166 166 171 168 180 199 189 199 199 199 143 251 254 247 84 178 210 220 226 222 220 219 217 215 213 214 213 210 206 204 202 206 205 203 202 199 197 201 202 198 195 197 198 200 204 204 203 201 195 195 192 190 204 210 214 215 215 216 213 213 214 198 191 187 193 211 201 200 201 198 202 203 188 188 190 184 192 200 207 211 200 195 204 214 207 206 190 167 171 180 178 201 185 181
79 112 87 91 111 161 177 191 190 139 201 216 200 184 223 247 206 141 180 224 226 226 223 221 215 212 212 211 213 214 210 208 207 208 205 206 205 203 202 203 199 199 198 196 197 199 201 200 203 202 204 199 196 194 194 199 210 212 211 207 206 205 202 204 195 185 187 197 210 203 198 199 200 200 200 198 187 189 193 201 204 205 201 202 211 227 221 213 212 210 200 194 178 170 182 190 206
121 131 124 105 82 103 55 30 115 131 219 224 199 190 205 261 206 186 166 213 215 224 226 224 216 215 215 214 211 211 208 205 204 207 206 207 205 202 196 198 202 199 197 194 197 200 201 202 203 204 205 200 198 196 196 205 209 212 216 208 206 206 199 197 191 195 182 201 211 204 198 199 199 200 197 185 194 189 198 201 199 193 196 192 202 203 211 213 202 200 194 185 185 188 180 185 188
147 136 134 119 86 104 114 100 189 208 218 232 203 194 204 234 244 186 210 216 213 213 219 214 205 209 208 208 208 209 207 203 202 204 208 206 199 198 196 201 199 196 194 196 201 199 201 201 201 205 205 200 199 198 200 208 208 212 217 214 204 207 197 194 198 194 186 190 197 189 186 188 192 195 188 180 187 190 185 189 190 184 186 192 197 201 208 207 201 188 186 190 192 198 186 186 188
193 149 150 174 157 173 181 160 198 211 221 145 151 172 212 233 253 116 218 237 241 229 233 227 207 210 204 208 206 203 204 202 200 202 204 201 194 192 198 202 197 193 195 196 200 201 201 201 201 204 208 200 200 198 203 209 210 213 214 215 212 202 200 197 198 200 186 191 190 188 179 184 176 178 184 184 183 181 178 177 180 182 185 193 196 194 196 194 191 191 192 200 203 202 204 204 200
192 180 165 190 169 188 190 175 3 208 271 208 180 175 232 303 269 256 255 252 236 231 234 243 233 214 199 204 199 196 201 206 203 200 201 197 192 194 196 197 195 195 196 196 197 200 198 200 201 206 211 200 197 198 203 209 212 213 213 214 214 209 200 197 200 200 189 191 186 187 186 184 181 186 182 186 181 178 179 179 178 185 188 191 194 195 198 197 196 198 200 209 214 218 222 222 227
198 197 179 208 188 192 198 167 197 198 195 103 145 161 217 186 215 186 224 245 275 245 233 227 222 219 203 207 206 209 211 211 204 199 198 197 194 195 195 193 192 194 196 197 196 197 196 199 201 205 209 204 196 198 199 204 210 213 213 213 213 208 193 195 199 196 186 189 189 189 186 184 183 186 181 181 172 171 176 179 183 188 189 192 195 198 201 202 203 207 210 219 229 229 235 235 237
189 183 203 206 211 117 231 158 211 183 154 155 164 225 166 217 342 294 259 277 269 256 239 209 213 205 186 188 198 204 206 205 203 202 202 201 196 196 199 196 193 192 194 197 195 193 198 202 203 205 207 204 198 199 202 203 204 211 211 212 214 210 192 194 193 191 191 189 185 188 186 184 185 179 179 174 174 176 179 183 186 192 191 193 194 200 203 204 203 208 211 215 231 221 234 231 236
150 165 209 210 127 183 82 62 23 66 190 228 149 256 243 287 281 267 261 260 265 245 245 219 216 195 181 195 199 202 202 202 201 202 201 197 196 197 197 195 195 193 192 195 195 194 198 201 202 204 205 203 198 200 201 200 205 205 210 214 212 200 193 195 194 192 195 193 187 188 184 186 183 178 177 180 177 183 185 186 188 194 192 193 195 200 204 205 200 205 211 211 226 226 223 230 233
118 206 196 84 6 328 181 223 126 220 230 214 169 210 232 174 258 124 313 246 254 244 228 216 201 180 194 204 198 196 196 197 196 196 195 193 195 196 195 195 194 194 194 194 195 195 199 200 200 201 202 204 204 199 199 198 199 205 212 211 201 190 192 195 191 189 187 184 188 187 184 180 185 180 178 180 185 188 192 190 191 192 193 195 198 200 203 207 202 207 214 220 235 233 231 238 237
220 222 131 187 168 202 127 188 201 192 220 229 185 222 247 203 230 256 263 244 256 257 218 175 193 198 207 209 205 199 195 194 197 199 195 199 201 198 195 197 197 196 194 194 195 194 197 199 201 203 203 204 203 200 201 202 202 211 209 197 191 192 193 188 188 185 180 183 187 188 191 186 177 179 180 179 187 192 194 194 196 195 194 197 200 201 200 206 205 216 214 226 224 219 234 247 245
20 109 178 310 183 193 172 194 35 191 239 210 223 180 230 185 214 200 237 250 257 264 243 198 204 202 206 209 204 190 187 195 195 196 200 200 201 196 194 197 197 198 197 200 198 196 200 201 199 202 205 201 198 197 193 199 208 207 197 190 193 193 187 186 185 185 184 184 183 183 187 182 184 181 191 186 189 193 193 196 198 202 202 204 205 208 205 206 207 218 224 229 231 216 229 243 253
185 196 187 178 213 4 253 148 209 197 222 213 238 224 202 179 198 209 223 237 241 240 247 220 214 213 212 204 194 184 190 194 195 199 201 200 199 197 197 198 200 199 197 198 198 198 203 202 201 201 199 198 199 200 196 200 197 198 192 194 198 194 191 186 185 184 181 186 177 166 172 183 175 195 192 193 193 192 190 193 196 200 206 205 208 213 207 209 211 219 219 225 229 221 234 245 249
196 200 194 186 158 168 196 218 103 198 211 200 197 245 200 179 178 198 216 226 229 234 235 240 232 219 209 200 198 187 189 193 195 199 197 197 195 194 196 196 197 198 200 198 199 202 205 204 205 202 203 203 204 202 198 195 193 191 195 198 198 191 185 179 180 183 186 164 146 177 183 175 188 191 191 194 192 189 191 192 196 198 202 206 209 213 215 209 215 219 224 217 224 223 230 242 247